Location: *
(33.8649°S, 62.1526°E)
Time: 13:10:16
(UTC+00:00)

SL-16 R/B - Pass Details

Date: 17 January 2021
Orbit: 842 x 846 km, 71.0° (Epoch: 02 March)

Event Time Altitude Azimuth Distance (km) Brightness Sun altitude
Rises 21:17:23 0° 200° (SSW) 3,430 6.0 -32.7°
Reaches altitude 10° 21:19:51 10° 199° (SSW) 2,488 5.2 -32.5°
Enters shadow 21:24:13 53° 188° (S) 1,033 2.8 -32.1°
